Location: Newark
(50.2306°N, 14.0814°E)
Time: 06:31:27
(UTC+00:00)

N. Korean satellite - Pass Details

Date: 09 December 2019
Orbit: 454 x 507 km, 97.2° (Epoch: 27 January)

Event Time Altitude Azimuth Distance (km) Brightness Sun altitude
Rises 16:03:25 0° 170° (S) 2,602 10.5 -9.5°
Reaches altitude 10° 16:05:30 10° 172° (S) 1,721 9.6 -9.8°
Maximum altitude 16:09:12 74° 258° (WSW) 532 6.9 -10.3°
Drops below altitude 10° 16:12:55 10° 344° (NNW) 1,722 9.3 -10.8°
Sets 16:15:01 0° 346° (NNW) 2,605 10.2 -11.2°
